Location: Glums�
(55.3568°N, 11.6856°E)
Time: 10:31:53
(UTC+00:00)

IRS-1D - Pass Details

Date: 07 June 2020
Orbit: 740 x 816 km, 98.6° (Epoch: 05 July)

Event Time Altitude Azimuth Distance (km) Brightness Sun altitude
Rises 01:03:33 0° 19° (NNE) 3,343 9.1 -8.3°
Reaches altitude 10° 01:06:02 10° 25° (NNE) 2,399 7.8 -8.2°
Maximum altitude 01:11:07 45° 98° (E) 1,085 4.5 -7.8°
Drops below altitude 10° 01:16:03 10° 171° (S) 2,339 5.5 -7.5°
Enters shadow 01:17:31 - 175° (S) 2,891 6.0 -7.4°
